Weather History for Cheboygan, MI

Change the Weather History Date:

Friday, June 14, 2013

  Actual Average (KPLN) Record (KPLN)
Temperature  
Mean Temperature 58 °F -  
Max Temperature 70 °F 77 °F 94 °F (1988)
Min Temperature 45 °F 49 °F 31 °F (1965)
Degree Days  
Heating Degree Days 8    
Growing Degree Days 8 (Base 50)    
Moisture  
Dew Point 40 °F    
Average Humidity 56    
Maximum Humidity 90    
Minimum Humidity 24    
Precipitation  
Precipitation 0.00 in - - ()
Sea Level Pressure  
Sea Level Pressure 30.09 in    
Wind  
Wind Speed 4 mph (North)    
Max Wind Speed 9 mph    
Max Gust Speed -    
Visibility 10 miles    
Events      
Averages and records for this station are not official NWS values.
T = Trace of Precipitation, MM = Missing Value Source: NWS Daily Summary

Daily Weather History Graph

Daily Weather History Graph

Search for Another Location

Airport:

Trip Planner

Search our weather history database for the weather conditions in past years. The results will help you decide how hot, cold, wet, or windy it might be!

Date:

Astronomy

Jun. 14, 2013 Rise Set
Actual Time 5:48 AM EDT 9:28 PM EDT
Civil Twilight 5:10 AM EDT 10:07 PM EDT
Nautical Twilight 4:19 AM EDT 10:58 PM EDT
Astronomical Twilight 3:09 AM EDT 12:07 AM EDT
Moon 11:37 AM EDT (6/14) 12:20 AM EDT (6/14)
Length of Visible Light 16h 56m
Length of Day
15h 40m
Waxing Crescent, 30% of the Moon is Illuminated
Jun 14
Waxing Crescent
Jun 16
First Quarter
Jun 23
Full
Jun 30
Last Quarter
Jul 8
New

Hourly Weather History & Observations

Time (EDT) Temp. Windchill Dew Point Humidity Pressure Visibility Wind Dir Wind Speed Gust Speed Precip Events Conditions
12:15 AM 54.5 °F - 45.7 °F 72% 30.03 in 10.0 mi NW 8.1 mph - N/A   Clear
12:35 AM 54.3 °F - 45.5 °F 72% 30.04 in 10.0 mi NW 5.8 mph - N/A   Clear
12:56 AM 53.2 °F - 45.3 °F 74% 30.05 in 10.0 mi NNW 4.6 mph - N/A   Clear
1:15 AM 53.6 °F - 45.1 °F 73% 30.06 in 10.0 mi North 6.9 mph - N/A   Clear
1:36 AM 53.1 °F - 44.6 °F 73% 30.05 in 10.0 mi North 5.8 mph - N/A   Clear
1:56 AM 51.8 °F - 43.9 °F 74% 30.06 in 10.0 mi NNW 3.5 mph - N/A   Clear
2:15 AM 51.1 °F - 43.9 °F 76% 30.05 in 10.0 mi Calm Calm - N/A   Clear
2:36 AM 49.8 °F - 43.9 °F 80% 30.05 in 10.0 mi NW 3.5 mph - N/A   Clear
2:55 AM 48.9 °F - 43.3 °F 81% 30.06 in 10.0 mi NNW 3.5 mph - N/A   Clear
3:15 AM 51.3 °F - 44.1 °F 76% 30.06 in 10.0 mi NNW 3.5 mph - N/A   Clear
3:36 AM 49.5 °F - 43.3 °F 79% 30.07 in 10.0 mi NW 4.6 mph - N/A   Clear
3:54 AM 48.9 °F - 42.8 °F 79% 30.07 in 10.0 mi NW 4.6 mph - N/A   Clear
4:15 AM 47.7 °F - 43.0 °F 84% 30.07 in 10.0 mi WNW 4.6 mph - N/A   Clear
4:35 AM 48.2 °F - 43.3 °F 83% 30.07 in 10.0 mi NW 4.6 mph - N/A   Clear
4:56 AM 49.1 °F - 43.5 °F 81% 30.08 in 10.0 mi WNW 3.5 mph - N/A   Clear
5:15 AM 46.9 °F - 41.7 °F 82% 30.08 in 10.0 mi Calm Calm - N/A   Clear
5:34 AM 49.1 °F - 43.3 °F 81% 30.08 in 10.0 mi Calm Calm - N/A   Clear
5:55 AM 45.3 °F - 42.4 °F 90% 30.08 in 10.0 mi Calm Calm - N/A   Clear
6:00 AM 45.3 °F 43.0 °F 41.7 °F 87% 30.08 in 10.0 mi NW 4.6 mph - N/A   Clear
6:35 AM 49.5 °F - 41.9 °F 75% 30.09 in 10.0 mi Calm Calm - N/A   Clear
6:56 AM 50.2 °F - 42.1 °F 74% 30.09 in 10.0 mi Calm Calm - N/A   Clear
7:15 AM 51.3 °F - 42.6 °F 72% 30.11 in 10.0 mi NW 4.6 mph - N/A   Clear
7:35 AM 53.1 °F - 40.5 °F 62% 30.11 in 10.0 mi North 4.6 mph - N/A   Clear
7:56 AM 54.0 °F - 39.7 °F 59% 30.11 in 10.0 mi North 3.5 mph - N/A   Clear
8:15 AM 54.5 °F - 39.0 °F 56% 30.11 in 10.0 mi NNE 5.8 mph - N/A   Clear
8:35 AM 55.0 °F - 39.0 °F 55% 30.13 in 10.0 mi North 5.8 mph - N/A   Clear
8:56 AM 55.6 °F - 36.9 °F 49% 30.13 in 10.0 mi NNE 9.2 mph - N/A   Clear
9:15 AM 56.3 °F - 37.4 °F 49% 30.14 in 10.0 mi NNE 6.9 mph - N/A   Clear
9:35 AM 56.5 °F - 37.4 °F 49% 30.14 in 10.0 mi ENE 6.9 mph - N/A   Clear
9:56 AM 56.8 °F - 38.3 °F 50% 30.15 in 10.0 mi NE 4.6 mph - N/A   Clear
10:15 AM 57.2 °F - 36.9 °F 47% 30.15 in 10.0 mi ENE 5.8 mph - N/A   Clear
10:36 AM 58.5 °F - 37.8 °F 46% 30.15 in 10.0 mi ENE 5.8 mph - N/A   Clear
10:55 AM 58.5 °F - 35.4 °F 42% 30.15 in 10.0 mi ENE 6.9 mph - N/A   Clear
11:16 AM 59.9 °F - 36.3 °F 41% 30.15 in 10.0 mi NE 8.1 mph - N/A   Clear
11:35 AM 60.6 °F - 36.5 °F 41% 30.15 in 10.0 mi ENE 8.1 mph - N/A   Clear
11:56 AM 59.2 °F - 37.9 °F 45% 30.15 in 10.0 mi NE 5.8 mph - N/A   Clear
12:15 PM 60.8 °F - 32.4 °F 34% 30.14 in 10.0 mi East 8.1 mph - N/A   Clear
12:35 PM 61.7 °F - 33.1 °F 34% 30.14 in 10.0 mi ENE 8.1 mph - N/A   Clear
12:56 PM 62.8 °F - 33.8 °F 34% 30.14 in 10.0 mi ENE 6.9 mph - N/A   Clear
1:15 PM 63.3 °F - 33.4 °F 33% 30.14 in 10.0 mi ENE 6.9 mph - N/A   Clear
1:35 PM 63.7 °F - 33.3 °F 32% 30.13 in 10.0 mi East 5.8 mph - N/A   Clear
1:56 PM 64.6 °F - 35.1 °F 33% 30.13 in 10.0 mi Calm Calm - N/A   Clear
2:15 PM 64.6 °F - 35.1 °F 33% 30.12 in 10.0 mi NE 5.8 mph - N/A   Clear
2:35 PM 65.3 °F - 34.7 °F 32% 30.12 in 10.0 mi NNE 3.5 mph - N/A   Clear
2:56 PM 65.8 °F - 35.2 °F 32% 30.11 in 10.0 mi ENE 6.9 mph - N/A   Clear
3:15 PM 66.6 °F - 33.8 °F 30% 30.10 in 10.0 mi East 3.5 mph - N/A   Clear
3:35 PM 66.7 °F - 30.9 °F 26% 30.10 in 10.0 mi Calm Calm - N/A   Clear
3:56 PM 67.5 °F - 33.8 °F 29% 30.09 in 10.0 mi Calm Calm - N/A   Clear
4:16 PM 69.4 °F - 35.1 °F 28% 30.08 in 10.0 mi Calm Calm - N/A   Clear
4:35 PM 69.6 °F - 34.2 °F 27% 30.05 in 10.0 mi East 4.6 mph - N/A   Clear
4:55 PM 70.0 °F - 33.1 °F 26% 30.06 in 10.0 mi East 4.6 mph - N/A   Clear
5:15 PM 70.0 °F - 31.8 °F 24% 30.06 in 10.0 mi Calm Calm - N/A   Clear
5:36 PM 70.9 °F - 32.7 °F 24% 30.06 in 10.0 mi North 3.5 mph - N/A   Clear
5:55 PM 70.9 °F - 34.7 °F 26% 30.05 in 10.0 mi Calm Calm - N/A   Clear
6:15 PM 70.7 °F - 34.0 °F 26% 30.05 in 10.0 mi Calm Calm - N/A   Clear
6:36 PM 70.3 °F - 34.3 °F 27% 30.05 in 10.0 mi North 4.6 mph - N/A   Clear
6:55 PM 70.2 °F - 36.1 °F 29% 30.05 in 10.0 mi Calm Calm - N/A   Clear
7:15 PM 69.6 °F - 33.8 °F 27% 30.04 in 10.0 mi Calm Calm - N/A   Clear
7:35 PM 67.3 °F - 37.6 °F 34% 30.04 in 10.0 mi North 4.6 mph - N/A   Clear
7:55 PM 66.4 °F - 38.5 °F 36% 30.04 in 10.0 mi North 3.5 mph - N/A   Clear
8:16 PM 64.0 °F - 41.2 °F 43% 30.05 in 10.0 mi Calm Calm - N/A   Clear
8:19 PM 63.5 °F - 43.2 °F 47% 30.05 in 10.0 mi North 3.5 mph - N/A   Clear
8:56 PM 60.1 °F - 48.0 °F 64% 30.05 in 10.0 mi North 3.5 mph - N/A   Clear
9:15 PM 57.2 °F - 48.7 °F 73% 30.06 in 10.0 mi Calm Calm - N/A   Clear
9:35 PM 56.7 °F - 48.0 °F 73% 30.06 in 10.0 mi Calm Calm - N/A   Clear
9:56 PM 53.6 °F - 47.3 °F 79% 30.06 in 10.0 mi Calm Calm - N/A   Clear
10:15 PM 53.8 °F - 47.3 °F 79% 30.06 in 10.0 mi WNW 3.5 mph - N/A   Clear
10:35 PM 52.9 °F - 45.7 °F 77% 30.07 in 10.0 mi NW 3.5 mph - N/A   Clear
10:56 PM 52.0 °F - 45.3 °F 78% 30.07 in 10.0 mi West 3.5 mph - N/A   Clear
11:05 PM 52.3 °F - 46.0 °F 79% 30.08 in 10.0 mi West 3.5 mph - N/A   Clear
11:39 PM 51.8 °F - 46.4 °F 82% 30.06 in 10.0 mi Calm Calm - N/A   Clear
11:52 PM 51.4 °F - 46.2 °F 82% 30.05 in 10.0 mi Calm Calm - N/A   Clear
11:54 PM 51.4 °F - 46.4 °F 83% 30.05 in 10.0 mi Calm Calm - N/A   Clear